Regional Weather Roundup
Issued by NWS Newport/Morehead, NC

Current Version | Previous Version | Graphics & Text | Print | Product List | Glossary Off
Versions: 1 2 3 4 5 6 7 8 9 10 11 12 13 14 15 16 17 18 19 20 21 22 23 24 25 26 27 28 29 30 31 32 33 34 35 36 37 38 39 40 41 42 43 44 45 46 47 48 49 50

000
ASUS42 KMHX 021713
RWRMHX
WEATHER ROUNDUP FOR EASTERN NORTH CAROLINA
NATIONAL WEATHER SERVICE NEWPORT/MOREHEAD CITY NC
1200 PM EST FRI DEC 02 2016

NOTE: "FAIR" INDICATES FEW OR NO CLOUDS BELOW 12,000 FEET
WITH NO SIGNIFICANT WEATHER AND/OR OBSTRUCTIONS TO VISIBILITY

NCZ015>017-031-032-045>047-102-103-021800-
NORTH COAST

CITY           SKY/WX    TMP DP  RH WIND       PRES   REMARKS
EDENTON        SUNNY     54  34  46 CALM      30.11F
ELIZABETH CITY SUNNY     53  31  42 VRB5      30.09F
KITTY HAWK     SUNNY     53  37  55 CALM      30.07F
MANTEO         SUNNY     52  36  54 N9        30.09F

$$

NCZ045>047-081-094-103-104-021800-
CENTRAL COAST

CITY           SKY/WX    TMP DP  RH WIND       PRES   REMARKS
FRISCO         SUNNY     55  41  59 VRB6      30.08F

$$

NCZ095-097-098-100-101-021800-
SOUTHERN COAST

CITY           SKY/WX    TMP DP  RH WIND       PRES   REMARKS
BEAUFORT       SUNNY     57  41  55 VRB6      30.10F
CEDAR ISLAND   NOT AVBL
JACKSONVILLE   SUNNY     55  31  39 NW8       30.12F
PINEY ISLAND   SUNNY    N/A N/A N/A NW10      30.10F
WILMINGTON     SUNNY     56  33  42 N9        30.13F


$$

NCZ011>013-027>030-043-044-078>080-089-090>093-098-021800-
COASTAL PLAIN

CITY           SKY/WX    TMP DP  RH WIND       PRES   REMARKS
AHOSKIE        SUNNY     52  32  45 CALM      30.11F
CLINTON        SUNNY     55  34  45 NW7       30.15F
ELIZABETHTOWN  SUNNY     55  32  42 NW8       30.16F
GOLDSBORO      SUNNY     55  30  38 NW8       30.11F
GREENVILLE     SUNNY     52  30  43 NW3       30.14F
HAVELOCK       SUNNY     56  37  49 N7        30.11F
KENANSVILLE    SUNNY     54  30  40 N7        30.14F
KINSTON        SUNNY     55  30  38 NW7       30.14F
NEW BERN       SUNNY     55  33  43 NW9       30.12F
RICHLANDS      SUNNY     55  32  41 VRB7      30.13F
ROCKY MOUNT    SUNNY     54  32  43 MISG      30.12F
WASHINGTON     SUNNY     54  31  40 W5        30.12F
WHITEVILLE     SUNNY     55  31  41 NW3       30.15F

$$

AMZ130-135-150-152-154-156-158-170-250-252-270-ANZ085-086-088-633-658-670-021800-
MARINE OBSERVATIONS

STATION/POSITION TIME  TEMP    WIND        PRES    WAVE   SWELL
                       AIR SEA DIR/SP/G            HT/PER HT/PER
                 (UTC) (F)     (DEG/KT/KT) (MB)    (FT/S) (FT/S)
CHESAPEAKE LIGHT NOT AVBL
64 E VA BEACH    1650   50 60  310/ 14/ 17 1017.6    4/ 5   2/ 6
DUCK             1648   50 57  340/  6/  9 1018.1
2 E DUCK         NOT AVBL
OREGON INLET     1636   52 59  360/  7/ 11 1018.6
13E OREGON INLT  1700      61                N/A     4/ 6   3/ 6
HATTERAS CG      1648   52 62  340/ 11/ 13 1018.3
DIAMOND BUOY     1650   56 77  360/ 10/ 16 1018.2    4/ 7   3/ 7
CAPE LOOKOUT     1700   54     350/  6/  7 1018.8
BEAUFORT LAB     1648   53 58  350/  6/  9 1018.3
30 SE NEW RVR IN 1608   55 72   10/ 10/ 16 1019.9
30 SE NEW RVR IN NOT AVBL
27 SE WRIGHTSVLE 1608   54 69   20/ 12/ 19 1019.9
5 SE WRIGHTSVLE  NOT AVBL
225 S CAPE HAT   1650   70 74  300/ 12/ 17 1016.9    5/ 7   3/ 7
41 SE CHARLESTON 1650   60 74  360/ 12/ 16 1019.8    3/ 9   2/ 9

$$




USA.gov is the U.S. government's official web portal to all federal, state and local government web resources and services.